Location: Unspecified
(0.0000°N, 0.0000°E)
Time: 00:24:48
(UTC+00:00)

STARLINK-1281 - Pass Details

Date: 20 December 2025
Orbit: 546 x 548 km, 53.1° (Epoch: 16 January)

Event Time Altitude Azimuth Distance (km) Brightness Sun altitude
Rises 04:25:10 0° 201° (SSW) 2,704 7.2 -21.1°
Reaches altitude 10° 04:27:30 10° 193° (SSW) 1,809 6.4 -20.6°
Maximum altitude 04:31:20 39° 124° (SE) 827 5.0 -19.7°
Drops below altitude 10° 04:35:11 10° 55° (NE) 1,802 6.6 -18.8°
Sets 04:37:30 0° 47° (NE) 2,692 7.4 -18.3°
